Orbital Elements at Epoch 2459200.5 (2020-Dec-17.0) TDB
Reference: JPL 27 (heliocentric ecliptic J2000)
Element | Value | Uncertainty (1-sigma) | Units |
e | .0782325471051558 | 4.1348e-08 | |
a | 3.136333244550566 | 1.9767e-08 | au |
q | 2.890969906258798 | 1.2559e-07 | au |
i | 4.10495255533449 | 3.9939e-06 | deg |
node | 240.1165287256318 | 5.8121e-05 | deg |
peri | 309.7698400522045 | 6.3426e-05 | deg |
M | 45.73446577404669 | 2.3574e-05 | deg |
tp | 2458942.765332471115 (2020-Apr-03.26533247) | 0.00013353 | TDB |
period | 2028.7649312185 5.55 | 1.918e-05 5.251e-08 | d yr |
n | .1774478622241266 | 1.6776e-09 | deg/d |
Q | 3.381696582842334 | 2.1313e-08 | au |
|
| | Orbit Determination Parameters
Additional Information
|